Time,TemperatureF,DewpointF,PressureIn,WindDirection,WindDirectionDegrees,WindSpeedMPH,WindSpeedGustMPH,Humidity,HourlyPrecipIn,Conditions,Clouds,dailyrainin,SoftwareType,DateUTC
2013-09-03 00:02:00,53.8,47.1,30.00,SSE,157,0.0,0.0,78,0.00,,,0.00,WUHU21623XXSP,2013-09-03 05:02:00,
2013-09-03 00:07:00,53.8,47.1,30.00,NE,45,0.0,0.0,78,0.00,,,0.00,WUHU21623XXSP,2013-09-03 05:07:00,
2013-09-03 00:12:00,53.6,46.9,30.00,NE,45,0.0,0.0,78,0.00,,,0.00,WUHU21623XXSP,2013-09-03 05:12:00,
2013-09-03 00:17:00,53.4,46.8,30.00,NE,45,0.0,0.0,78,0.00,,,0.00,WUHU21623XXSP,2013-09-03 05:17:00,
2013-09-03 00:22:00,53.4,47.1,30.00,SSW,202,0.0,0.0,79,0.00,,,0.00,WUHU21623XXSP,2013-09-03 05:22:00,
2013-09-03 00:27:00,53.4,47.1,30.00,SSW,202,0.0,0.0,79,0.00,,,0.00,WUHU21623XXSP,2013-09-03 05:27:00,
2013-09-03 00:32:00,53.2,46.9,30.00,ENE,67,0.0,0.0,79,0.00,,,0.00,WUHU21623XXSP,2013-09-03 05:32:00,
2013-09-03 00:37:00,53.2,46.9,30.00,ENE,67,0.0,0.0,79,0.00,,,0.00,WUHU21623XXSP,2013-09-03 05:37:00,
2013-09-03 00:42:00,53.2,46.9,29.99,West,270,1.3,1.3,79,0.00,,,0.00,WUHU21623XXSP,2013-09-03 05:42:00,
2013-09-03 00:47:00,53.2,47.3,29.99,WSW,247,0.0,1.3,80,0.00,,,0.00,WUHU21623XXSP,2013-09-03 05:47:00,
2013-09-03 00:52:00,53.4,47.5,30.00,SSW,202,0.0,1.1,80,0.00,,,0.00,WUHU21623XXSP,2013-09-03 05:52:00,
2013-09-03 00:57:00,53.6,47.7,30.00,West,270,0.0,1.1,80,0.00,,,0.00,WUHU21623XXSP,2013-09-03 05:57:00,
2013-09-03 01:02:00,54.0,48.0,30.00,WSW,247,0.0,0.0,80,0.00,,,0.00,WUHU21623XXSP,2013-09-03 06:02:00,
2013-09-03 01:07:00,54.0,48.0,30.00,WSW,247,0.0,0.9,80,0.00,,,0.00,WUHU21623XXSP,2013-09-03 06:07:00,
2013-09-03 01:12:00,53.8,47.8,30.00,SW,225,0.0,0.9,80,0.00,,,0.00,WUHU21623XXSP,2013-09-03 06:12:00,
2013-09-03 01:17:00,53.4,47.5,30.00,SW,225,0.0,0.0,80,0.00,,,0.00,WUHU21623XXSP,2013-09-03 06:17:00,
2013-09-03 01:22:00,53.4,47.5,30.00,SW,225,0.0,0.0,80,0.00,,,0.00,WUHU21623XXSP,2013-09-03 06:22:00,
2013-09-03 01:27:00,53.2,47.3,30.00,SW,225,0.0,0.0,80,0.00,,,0.00,WUHU21623XXSP,2013-09-03 06:27:00,
2013-09-03 01:32:00,52.9,46.9,30.00,SSW,202,0.0,0.0,80,0.00,,,0.00,WUHU21623XXSP,2013-09-03 06:32:00,
2013-09-03 01:37:00,52.9,46.9,30.00,SSW,202,0.0,0.0,80,0.00,,,0.00,WUHU21623XXSP,2013-09-03 06:37:00,
2013-09-03 01:42:00,52.5,46.6,29.99,SSW,202,0.0,0.0,80,0.00,,,0.00,WUHU21623XXSP,2013-09-03 06:42:00,
2013-09-03 01:47:00,52.5,46.6,29.99,SSW,202,0.0,0.0,80,0.00,,,0.00,WUHU21623XXSP,2013-09-03 06:47:00,
2013-09-03 01:52:00,52.3,46.4,29.99,SSW,202,0.0,0.0,80,0.00,,,0.00,WUHU21623XXSP,2013-09-03 06:52:00,
2013-09-03 01:57:00,52.3,46.4,29.99,SSW,202,0.0,0.0,80,0.00,,,0.00,WUHU21623XXSP,2013-09-03 06:57:00,
2013-09-03 02:02:00,52.2,46.2,29.99,SSW,202,0.0,0.0,80,0.00,,,0.00,WUHU21623XXSP,2013-09-03 07:02:00,
2013-09-03 02:07:00,52.2,46.2,30.00,SSW,202,0.0,0.0,80,0.00,,,0.00,WUHU21623XXSP,2013-09-03 07:07:00,
2013-09-03 02:12:00,52.0,46.3,30.00,SSW,202,0.0,0.0,81,0.00,,,0.00,WUHU21623XXSP,2013-09-03 07:12:00,
2013-09-03 02:17:00,51.8,46.2,30.00,SSW,202,0.0,0.0,81,0.00,,,0.00,WUHU21623XXSP,2013-09-03 07:17:00,
2013-09-03 02:23:00,51.6,46.0,30.00,SW,225,0.0,0.0,81,0.00,,,0.00,WUHU21623XXSP,2013-09-03 07:23:00,
2013-09-03 02:28:00,51.6,46.0,30.00,SSW,202,0.0,0.0,81,0.00,,,0.00,WUHU21623XXSP,2013-09-03 07:28:00,
2013-09-03 02:33:00,51.6,46.0,30.00,SSW,202,0.0,0.0,81,0.00,,,0.00,WUHU21623XXSP,2013-09-03 07:33:00,
2013-09-03 02:38:00,51.4,45.8,30.00,SSW,202,0.0,1.3,81,0.00,,,0.00,WUHU21623XXSP,2013-09-03 07:38:00,
2013-09-03 02:43:00,51.4,45.8,30.00,SSW,202,0.0,1.3,81,0.00,,,0.00,WUHU21623XXSP,2013-09-03 07:43:00,
2013-09-03 02:48:00,51.3,45.6,30.00,SSW,202,0.0,0.0,81,0.00,,,0.00,WUHU21623XXSP,2013-09-03 07:48:00,
2013-09-03 02:53:00,51.1,45.4,30.00,SSW,202,0.0,0.0,81,0.00,,,0.00,WUHU21623XXSP,2013-09-03 07:53:00,
2013-09-03 02:58:00,51.1,45.4,30.00,SSW,202,0.0,0.0,81,0.00,,,0.00,WUHU21623XXSP,2013-09-03 07:58:00,
2013-09-03 03:03:00,51.1,45.4,30.00,ENE,67,0.0,0.0,81,0.00,,,0.00,WUHU21623XXSP,2013-09-03 08:03:00,
2013-09-03 03:08:00,50.9,45.3,30.00,ENE,67,0.0,0.0,81,0.00,,,0.00,WUHU21623XXSP,2013-09-03 08:08:00,
2013-09-03 03:13:00,50.7,45.1,30.00,ENE,67,0.0,0.0,81,0.00,,,0.00,WUHU21623XXSP,2013-09-03 08:13:00,
2013-09-03 03:18:00,50.7,45.1,30.00,ENE,67,0.0,0.0,81,0.00,,,0.00,WUHU21623XXSP,2013-09-03 08:18:00,
2013-09-03 03:23:00,50.5,44.9,30.01,ENE,67,0.0,0.0,81,0.00,,,0.00,WUHU21623XXSP,2013-09-03 08:23:00,
2013-09-03 03:28:00,50.5,44.9,30.00,South,180,0.0,0.0,81,0.00,,,0.00,WUHU21623XXSP,2013-09-03 08:28:00,
2013-09-03 03:33:00,50.2,44.5,30.00,South,180,0.7,0.9,81,0.00,,,0.00,WUHU21623XXSP,2013-09-03 08:33:00,
2013-09-03 03:38:00,50.2,44.5,30.00,South,180,0.0,0.9,81,0.00,,,0.00,WUHU21623XXSP,2013-09-03 08:38:00,
2013-09-03 03:43:00,50.0,44.4,30.00,South,180,0.0,0.0,81,0.00,,,0.00,WUHU21623XXSP,2013-09-03 08:43:00,
2013-09-03 03:48:00,49.8,44.2,30.00,South,180,0.0,0.0,81,0.00,,,0.00,WUHU21623XXSP,2013-09-03 08:48:00,
2013-09-03 03:53:00,49.8,44.5,30.00,South,180,0.0,0.0,82,0.00,,,0.00,WUHU21623XXSP,2013-09-03 08:53:00,
2013-09-03 03:58:00,49.8,44.5,30.00,South,180,0.0,0.0,82,0.00,,,0.00,WUHU21623XXSP,2013-09-03 08:58:00,
2013-09-03 04:03:00,49.6,44.3,30.00,South,180,0.0,0.0,82,0.00,,,0.00,WUHU21623XXSP,2013-09-03 09:03:00,
2013-09-03 04:08:00,49.6,44.0,30.00,South,180,0.0,0.0,81,0.00,,,0.00,WUHU21623XXSP,2013-09-03 09:08:00,
2013-09-03 04:13:00,49.5,43.8,30.00,South,180,0.0,0.0,81,0.00,,,0.00,WUHU21623XXSP,2013-09-03 09:13:00,
2013-09-03 04:18:00,49.3,43.6,30.00,South,180,0.0,0.0,81,0.00,,,0.00,WUHU21623XXSP,2013-09-03 09:18:00,
2013-09-03 04:23:00,49.3,43.6,30.00,South,180,0.0,0.0,81,0.00,,,0.00,WUHU21623XXSP,2013-09-03 09:23:00,
2013-09-03 04:28:00,49.3,43.6,30.00,South,180,0.0,0.0,81,0.00,,,0.00,WUHU21623XXSP,2013-09-03 09:28:00,
2013-09-03 04:33:00,49.1,43.5,30.00,South,180,0.7,0.7,81,0.00,,,0.00,WUHU21623XXSP,2013-09-03 09:33:00,
2013-09-03 04:38:00,48.9,43.6,30.00,South,180,0.0,0.7,82,0.00,,,0.00,WUHU21623XXSP,2013-09-03 09:38:00,
2013-09-03 04:43:00,48.9,43.6,30.01,South,180,0.0,0.0,82,0.00,,,0.00,WUHU21623XXSP,2013-09-03 09:43:00,
2013-09-03 04:48:00,48.9,43.6,30.01,South,180,0.0,0.0,82,0.00,,,0.00,WUHU21623XXSP,2013-09-03 09:48:00,
2013-09-03 04:53:00,48.7,43.4,30.01,South,180,0.0,0.0,82,0.00,,,0.00,WUHU21623XXSP,2013-09-03 09:53:00,
2013-09-03 04:58:00,48.7,43.4,30.01,South,180,0.0,0.0,82,0.00,,,0.00,WUHU21623XXSP,2013-09-03 09:58:00,
2013-09-03 05:03:00,48.4,43.1,30.01,South,180,0.9,1.1,82,0.00,,,0.00,WUHU21623XXSP,2013-09-03 10:03:00,
2013-09-03 05:08:00,48.0,42.7,30.01,South,180,1.6,1.6,82,0.00,,,0.00,WUHU21623XXSP,2013-09-03 10:08:00,
2013-09-03 05:13:00,48.0,42.7,30.02,South,180,1.0,1.6,82,0.00,,,0.00,WUHU21623XXSP,2013-09-03 10:13:00,
2013-09-03 05:18:00,48.0,42.7,30.02,SSE,157,0.0,1.6,82,0.00,,,0.00,WUHU21623XXSP,2013-09-03 10:18:00,
2013-09-03 05:23:00,48.2,42.9,30.02,South,180,0.0,1.6,82,0.00,,,0.00,WUHU21623XXSP,2013-09-03 10:23:00,
2013-09-03 05:28:00,48.4,43.1,30.02,South,180,0.0,0.7,82,0.00,,,0.00,WUHU21623XXSP,2013-09-03 10:28:00,
2013-09-03 05:33:00,48.4,43.1,30.02,South,180,0.0,0.0,82,0.00,,,0.00,WUHU21623XXSP,2013-09-03 10:33:00,
2013-09-03 05:38:00,48.4,43.1,30.02,South,180,0.0,0.0,82,0.00,,,0.00,WUHU21623XXSP,2013-09-03 10:38:00,
2013-09-03 05:43:00,48.2,42.9,30.02,South,180,0.0,0.0,82,0.00,,,0.00,WUHU21623XXSP,2013-09-03 10:43:00,
2013-09-03 05:48:00,48.0,42.7,30.02,South,180,0.0,0.0,82,0.00,,,0.00,WUHU21623XXSP,2013-09-03 10:48:00,
2013-09-03 05:53:00,48.0,42.7,30.03,South,180,0.0,0.0,82,0.00,,,0.00,WUHU21623XXSP,2013-09-03 10:53:00,
2013-09-03 05:58:00,48.0,42.7,30.02,South,180,0.0,0.0,82,0.00,,,0.00,WUHU21623XXSP,2013-09-03 10:58:00,
2013-09-03 06:03:00,47.8,42.6,30.03,South,180,0.0,0.0,82,0.00,,,0.00,WUHU21623XXSP,2013-09-03 11:03:00,
2013-09-03 06:08:00,47.7,42.4,30.03,South,180,0.0,0.0,82,0.00,,,0.00,WUHU21623XXSP,2013-09-03 11:08:00,
2013-09-03 06:13:00,47.7,42.7,30.03,South,180,0.0,0.0,83,0.00,,,0.00,WUHU21623XXSP,2013-09-03 11:13:00,
2013-09-03 06:19:00,47.7,42.7,30.03,South,180,0.0,0.0,83,0.00,,,0.00,WUHU21623XXSP,2013-09-03 11:19:00,
2013-09-03 06:23:00,47.7,42.4,30.03,South,180,0.0,0.0,82,0.00,,,0.00,WUHU21623XXSP,2013-09-03 11:23:00,
2013-09-03 06:29:00,47.7,42.4,30.04,South,180,0.0,0.0,82,0.00,,,0.00,WUHU21623XXSP,2013-09-03 11:29:00,
2013-09-03 06:34:00,47.5,42.5,30.04,South,180,0.0,0.0,83,0.00,,,0.00,WUHU21623XXSP,2013-09-03 11:34:00,
2013-09-03 06:39:00,47.5,42.5,30.03,South,180,0.0,0.0,83,0.00,,,0.00,WUHU21623XXSP,2013-09-03 11:39:00,
2013-09-03 06:44:00,47.5,42.5,30.04,South,180,0.0,0.0,83,0.00,,,0.00,WUHU21623XXSP,2013-09-03 11:44:00,
2013-09-03 06:49:00,47.3,42.4,30.04,South,180,0.0,0.0,83,0.00,,,0.00,WUHU21623XXSP,2013-09-03 11:49:00,
2013-09-03 06:54:00,47.1,42.2,30.03,South,180,0.0,0.0,83,0.00,,,0.00,WUHU21623XXSP,2013-09-03 11:54:00,
2013-09-03 06:59:00,47.1,42.2,30.04,South,177,1.3,2.2,83,0.00,,,0.00,WUHU21623XXSP,2013-09-03 11:59:00,
2013-09-03 07:04:00,46.9,42.0,30.04,SSE,157,1.3,2.2,83,0.00,,,0.00,WUHU21623XXSP,2013-09-03 12:04:00,
2013-09-03 07:09:00,46.9,42.0,30.04,SSE,161,1.1,2.0,83,0.00,,,0.00,WUHU21623XXSP,2013-09-03 12:09:00,
2013-09-03 07:14:00,46.9,42.0,30.03,SSE,167,1.1,2.0,83,0.00,,,0.00,WUHU21623XXSP,2013-09-03 12:14:00,
2013-09-03 07:19:00,47.5,42.9,30.03,South,180,0.0,2.2,84,0.00,,,0.00,WUHU21623XXSP,2013-09-03 12:19:00,
2013-09-03 07:24:00,48.0,43.4,30.03,SSE,157,0.0,2.2,84,0.00,,,0.00,WUHU21623XXSP,2013-09-03 12:24:00,
2013-09-03 07:29:00,48.4,43.7,30.03,SSE,157,1.8,2.2,84,0.00,,,0.00,WUHU21623XXSP,2013-09-03 12:29:00,
2013-09-03 07:34:00,48.7,44.1,30.04,SSE,160,1.1,2.2,84,0.00,,,0.00,WUHU21623XXSP,2013-09-03 12:34:00,
2013-09-03 07:39:00,49.1,44.7,30.03,SSE,162,1.6,2.0,85,0.00,,,0.00,WUHU21623XXSP,2013-09-03 12:39:00,
2013-09-03 07:44:00,49.6,45.2,30.03,SSE,161,1.3,1.8,85,0.00,,,0.00,WUHU21623XXSP,2013-09-03 12:44:00,
2013-09-03 07:49:00,50.2,46.1,30.04,SSE,157,0.9,4.3,86,0.00,,,0.00,WUHU21623XXSP,2013-09-03 12:49:00,
2013-09-03 07:54:00,50.5,46.4,30.04,SSW,199,1.8,4.3,86,0.00,,,0.00,WUHU21623XXSP,2013-09-03 12:54:00,
2013-09-03 07:59:00,51.3,47.5,30.04,SSW,203,1.4,2.9,87,0.00,,,0.00,WUHU21623XXSP,2013-09-03 12:59:00,
2013-09-03 08:04:00,51.6,47.8,30.04,SSW,209,1.1,2.9,87,0.00,,,0.00,WUHU21623XXSP,2013-09-03 13:04:00,
2013-09-03 08:09:00,52.2,48.4,30.04,West,270,0.9,3.1,87,0.00,,,0.00,WUHU21623XXSP,2013-09-03 13:09:00,
2013-09-03 08:14:00,52.5,48.7,30.04,SSW,208,2.3,3.6,87,0.00,,,0.00,WUHU21623XXSP,2013-09-03 13:14:00,
2013-09-03 08:19:00,53.1,49.3,30.04,South,188,1.8,5.1,87,0.00,,,0.00,WUHU21623XXSP,2013-09-03 13:19:00,
2013-09-03 08:24:00,53.4,49.6,30.04,SSW,204,1.2,5.1,87,0.00,,,0.00,WUHU21623XXSP,2013-09-03 13:24:00,
2013-09-03 08:29:00,53.8,50.0,30.04,South,180,0.9,2.0,87,0.00,,,0.00,WUHU21623XXSP,2013-09-03 13:29:00,
2013-09-03 08:34:00,54.1,50.6,30.04,South,171,2.3,3.6,88,0.00,,,0.00,WUHU21623XXSP,2013-09-03 13:34:00,
2013-09-03 08:39:00,54.3,50.8,30.04,West,280,1.6,4.5,88,0.00,,,0.00,WUHU21623XXSP,2013-09-03 13:39:00,
2013-09-03 08:44:00,54.9,51.3,30.04,SSE,157,4.0,4.5,88,0.00,,,0.00,WUHU21623XXSP,2013-09-03 13:44:00,
2013-09-03 08:49:00,55.2,51.7,30.04,SSW,202,4.0,6.3,88,0.00,,,0.00,WUHU21623XXSP,2013-09-03 13:49:00,
2013-09-03 08:54:00,55.8,52.2,30.04,SW,225,2.0,6.3,88,0.00,,,0.00,WUHU21623XXSP,2013-09-03 13:54:00,
2013-09-03 08:59:00,56.1,52.6,30.04,SSW,202,2.0,4.9,88,0.00,,,0.00,WUHU21623XXSP,2013-09-03 13:59:00,
2013-09-03 09:04:00,56.5,53.0,30.04,SSW,197,1.9,3.8,88,0.00,,,0.00,WUHU21623XXSP,2013-09-03 14:04:00,
2013-09-03 09:09:00,56.8,53.3,30.05,South,170,3.7,5.4,88,0.00,,,0.00,WUHU21623XXSP,2013-09-03 14:09:00,
2013-09-03 09:14:00,57.0,53.5,30.05,SW,225,7.2,7.2,88,0.00,,,0.00,WUHU21623XXSP,2013-09-03 14:14:00,
2013-09-03 09:19:00,57.2,53.7,30.05,South,180,2.7,7.2,88,0.00,,,0.00,WUHU21623XXSP,2013-09-03 14:19:00,
2013-09-03 09:24:00,57.4,53.9,30.05,SSW,201,3.2,4.7,88,0.00,,,0.00,WUHU21623XXSP,2013-09-03 14:24:00,
2013-09-03 09:29:00,57.7,54.2,30.05,West,268,2.0,4.7,88,0.00,,,0.00,WUHU21623XXSP,2013-09-03 14:29:00,
2013-09-03 09:34:00,57.9,54.4,30.04,SW,217,1.0,4.0,88,0.00,,,0.00,WUHU21623XXSP,2013-09-03 14:34:00,
2013-09-03 09:39:00,58.3,54.8,30.05,South,180,6.0,6.0,88,0.00,,,0.00,WUHU21623XXSP,2013-09-03 14:39:00,
2013-09-03 09:44:00,58.8,55.0,30.05,South,180,2.9,8.1,87,0.00,,,0.00,WUHU21623XXSP,2013-09-03 14:44:00,
2013-09-03 09:49:00,58.8,55.0,30.04,South,190,3.1,8.1,87,0.00,,,0.00,WUHU21623XXSP,2013-09-03 14:49:00,
2013-09-03 09:54:00,59.5,55.7,30.04,South,180,4.7,7.2,87,0.00,,,0.00,WUHU21623XXSP,2013-09-03 14:54:00,
2013-09-03 09:59:00,60.1,55.9,30.04,South,180,7.6,7.6,86,0.00,,,0.00,WUHU21623XXSP,2013-09-03 14:59:00,
2013-09-03 10:04:00,60.6,56.1,30.05,SSE,157,5.6,10.3,85,0.00,,,0.00,WUHU21623XXSP,2013-09-03 15:04:00,
2013-09-03 10:09:00,61.0,56.1,30.04,SW,220,3.4,10.3,84,0.00,,,0.00,WUHU21623XXSP,2013-09-03 15:09:00,
2013-09-03 10:14:00,61.3,56.5,30.04,South,185,4.1,6.9,84,0.00,,,0.00,WUHU21623XXSP,2013-09-03 15:14:00,
2013-09-03 10:19:00,61.7,56.5,30.04,WSW,244,1.6,7.6,83,0.00,,,0.00,WUHU21623XXSP,2013-09-03 15:19:00,
2013-09-03 10:24:00,62.1,56.8,30.04,South,184,3.8,8.5,83,0.00,,,0.00,WUHU21623XXSP,2013-09-03 15:24:00,
2013-09-03 10:29:00,62.6,57.0,30.04,South,180,4.6,9.2,82,0.00,,,0.00,WUHU21623XXSP,2013-09-03 15:29:00,
2013-09-03 10:34:00,63.0,57.3,30.04,West,270,8.1,9.2,82,0.00,,,0.00,WUHU21623XXSP,2013-09-03 15:34:00,
2013-09-03 10:39:00,63.1,56.8,30.04,SSW,200,2.5,8.1,80,0.00,,,0.00,WUHU21623XXSP,2013-09-03 15:39:00,
2013-09-03 10:44:00,63.3,57.0,30.03,South,180,7.2,7.2,80,0.00,,,0.00,WUHU21623XXSP,2013-09-03 15:44:00,
2013-09-03 10:49:00,63.7,57.0,30.04,SSE,157,6.5,8.3,79,0.00,,,0.00,WUHU21623XXSP,2013-09-03 15:49:00,
2013-09-03 10:54:00,63.7,56.7,30.04,South,180,3.6,8.3,78,0.00,,,0.00,WUHU21623XXSP,2013-09-03 15:54:00,
2013-09-03 10:59:00,63.7,56.7,30.04,South,172,3.3,6.9,78,0.00,,,0.00,WUHU21623XXSP,2013-09-03 15:59:00,
2013-09-03 11:04:00,64.0,57.0,30.04,SSE,166,2.2,6.0,78,0.00,,,0.00,WUHU21623XXSP,2013-09-03 16:04:00,
2013-09-03 11:09:00,64.2,57.2,30.04,South,186,3.9,7.4,78,0.00,,,0.00,WUHU21623XXSP,2013-09-03 16:09:00,
2013-09-03 11:15:00,64.6,57.2,30.04,SSE,167,7.8,10.7,77,0.00,,,0.00,WUHU21623XXSP,2013-09-03 16:15:00,
2013-09-03 11:20:00,64.9,57.2,30.04,South,181,4.4,10.7,76,0.00,,,0.00,WUHU21623XXSP,2013-09-03 16:20:00,
2013-09-03 11:24:00,65.3,57.1,30.04,SSE,157,3.8,9.2,75,0.00,,,0.00,WUHU21623XXSP,2013-09-03 16:24:00,
2013-09-03 11:30:00,65.5,56.9,30.04,SSE,157,6.3,9.2,74,0.00,,,0.00,WUHU21623XXSP,2013-09-03 16:30:00,
2013-09-03 11:35:00,66.0,57.5,30.03,South,180,10.5,10.7,74,0.00,,,0.00,WUHU21623XXSP,2013-09-03 16:35:00,
2013-09-03 11:40:00,66.6,57.6,30.03,South,178,5.2,10.7,73,0.00,,,0.00,WUHU21623XXSP,2013-09-03 16:40:00,
2013-09-03 11:45:00,66.9,57.6,30.03,SSE,157,3.8,8.1,72,0.00,,,0.00,WUHU21623XXSP,2013-09-03 16:45:00,
2013-09-03 11:50:00,67.3,58.0,30.02,South,180,6.3,9.2,72,0.00,,,0.00,WUHU21623XXSP,2013-09-03 16:50:00,
2013-09-03 11:55:00,67.8,58.1,30.03,South,183,3.4,9.2,71,0.00,,,0.00,WUHU21623XXSP,2013-09-03 16:55:00,
2013-09-03 12:00:00,68.2,57.7,30.03,South,183,4.5,10.3,69,0.00,,,0.00,WUHU21623XXSP,2013-09-03 17:00:00,
2013-09-03 12:05:00,68.7,57.7,30.02,SSW,193,4.6,10.3,68,0.00,,,0.00,WUHU21623XXSP,2013-09-03 17:05:00,
2013-09-03 12:10:00,69.1,58.0,30.02,SSW,202,5.1,8.9,68,0.00,,,0.00,WUHU21623XXSP,2013-09-03 17:10:00,
2013-09-03 12:15:00,69.6,58.1,30.02,South,180,4.7,8.5,67,0.00,,,0.00,WUHU21623XXSP,2013-09-03 17:15:00,
2013-09-03 12:20:00,70.3,58.4,30.02,South,182,3.0,8.5,66,0.00,,,0.00,WUHU21623XXSP,2013-09-03 17:20:00,
2013-09-03 12:25:00,70.7,59.2,30.02,SSE,157,4.9,6.9,67,0.00,,,0.00,WUHU21623XXSP,2013-09-03 17:25:00,
2013-09-03 12:30:00,71.2,59.3,30.01,SSW,199,1.7,5.8,66,0.00,,,0.00,WUHU21623XXSP,2013-09-03 17:30:00,
2013-09-03 12:35:00,71.6,59.2,30.01,SSW,202,2.2,5.4,65,0.00,,,0.00,WUHU21623XXSP,2013-09-03 17:35:00,
2013-09-03 12:40:00,71.6,58.7,30.00,South,187,3.4,5.8,64,0.00,,,0.00,WUHU21623XXSP,2013-09-03 17:40:00,
2013-09-03 12:45:00,71.4,58.1,30.01,SSE,163,4.7,6.9,63,0.00,,,0.00,WUHU21623XXSP,2013-09-03 17:45:00,
2013-09-03 12:50:00,71.8,58.5,30.01,SSE,157,6.7,9.4,63,0.00,,,0.00,WUHU21623XXSP,2013-09-03 17:50:00,
2013-09-03 12:55:00,72.1,58.4,30.01,SSE,157,6.9,9.4,62,0.00,,,0.00,WUHU21623XXSP,2013-09-03 17:55:00,
2013-09-03 13:00:00,72.5,58.7,30.01,WNW,292,4.0,8.9,62,0.00,,,0.00,WUHU21623XXSP,2013-09-03 18:00:00,
2013-09-03 13:05:00,73.0,59.2,30.01,SSW,202,4.9,8.1,62,0.00,,,0.00,WUHU21623XXSP,2013-09-03 18:05:00,
2013-09-03 13:10:00,73.6,58.8,30.00,SSE,164,4.2,6.7,60,0.00,,,0.00,WUHU21623XXSP,2013-09-03 18:10:00,
2013-09-03 13:15:00,73.9,59.2,30.00,South,180,3.8,6.7,60,0.00,,,0.00,WUHU21623XXSP,2013-09-03 18:15:00,
2013-09-03 13:20:00,74.3,59.5,30.00,SW,226,1.6,9.2,60,0.00,,,0.00,WUHU21623XXSP,2013-09-03 18:20:00,
2013-09-03 13:25:00,75.0,59.8,29.99,South,191,4.1,9.2,59,0.00,,,0.00,WUHU21623XXSP,2013-09-03 18:25:00,
2013-09-03 13:30:00,75.7,59.9,29.99,South,190,3.4,8.5,58,0.00,,,0.00,WUHU21623XXSP,2013-09-03 18:30:00,
2013-09-03 13:35:00,76.5,60.6,29.99,SSW,198,3.4,8.1,58,0.00,,,0.00,WUHU21623XXSP,2013-09-03 18:35:00,
2013-09-03 13:40:00,76.8,59.9,29.99,South,190,4.3,8.1,56,0.00,,,0.00,WUHU21623XXSP,2013-09-03 18:40:00,
2013-09-03 13:45:00,77.2,59.2,29.99,South,189,5.6,8.1,54,0.00,,,0.00,WUHU21623XXSP,2013-09-03 18:45:00,
2013-09-03 13:50:00,77.5,59.5,29.98,South,173,3.4,8.1,54,0.00,,,0.00,WUHU21623XXSP,2013-09-03 18:50:00,
2013-09-03 13:55:00,78.1,60.0,29.98,South,191,3.1,7.8,54,0.00,,,0.00,WUHU21623XXSP,2013-09-03 18:55:00,
2013-09-03 14:00:00,78.6,60.5,29.98,South,180,3.6,6.9,54,0.00,,,0.00,WUHU21623XXSP,2013-09-03 19:00:00,
2013-09-03 14:05:00,78.6,60.0,29.98,WSW,239,2.7,8.1,53,0.00,,,0.00,WUHU21623XXSP,2013-09-03 19:05:00,
2013-09-03 14:10:00,79.0,59.8,29.98,East,97,1.3,12.1,52,0.00,,,0.00,WUHU21623XXSP,2013-09-03 19:10:00,
2013-09-03 14:15:00,79.0,59.8,29.98,SE,135,5.4,12.1,52,0.00,,,0.00,WUHU21623XXSP,2013-09-03 19:15:00,
2013-09-03 14:20:00,79.0,59.3,29.97,WSW,247,2.9,7.2,51,0.00,,,0.00,WUHU21623XXSP,2013-09-03 19:20:00,
2013-09-03 14:25:00,78.8,59.2,29.97,SW,222,3.6,7.4,51,0.00,,,0.00,WUHU21623XXSP,2013-09-03 19:25:00,
2013-09-03 14:30:00,78.6,59.0,29.97,SSW,196,2.5,8.7,51,0.00,,,0.00,WUHU21623XXSP,2013-09-03 19:30:00,
2013-09-03 14:35:00,78.8,59.2,29.97,South,174,4.4,8.7,51,0.00,,,0.00,WUHU21623XXSP,2013-09-03 19:35:00,
2013-09-03 14:40:00,79.0,59.3,29.97,WSW,258,3.2,6.7,51,0.00,,,0.00,WUHU21623XXSP,2013-09-03 19:40:00,
2013-09-03 14:45:00,79.3,59.6,29.96,SSW,207,1.1,6.5,51,0.00,,,0.00,WUHU21623XXSP,2013-09-03 19:45:00,
2013-09-03 14:50:00,79.3,59.6,29.96,SE,135,6.0,6.9,51,0.00,,,0.00,WUHU21623XXSP,2013-09-03 19:50:00,
2013-09-03 14:55:00,78.8,58.6,29.95,SSW,199,4.2,9.2,50,0.00,,,0.00,WUHU21623XXSP,2013-09-03 19:55:00,
2013-09-03 15:01:00,78.6,59.0,29.95,South,180,7.4,9.2,51,0.00,,,0.00,WUHU21623XXSP,2013-09-03 20:01:00,
2013-09-03 15:06:00,79.0,59.3,29.95,South,180,4.7,8.9,51,0.00,,,0.00,WUHU21623XXSP,2013-09-03 20:06:00,
2013-09-03 15:11:00,79.3,59.6,29.95,SSE,157,4.5,8.9,51,0.00,,,0.00,WUHU21623XXSP,2013-09-03 20:11:00,
2013-09-03 15:16:00,79.0,58.8,29.95,SSE,157,3.6,6.3,50,0.00,,,0.00,WUHU21623XXSP,2013-09-03 20:16:00,
2013-09-03 15:21:00,78.6,59.0,29.95,SSW,202,5.4,8.7,51,0.00,,,0.00,WUHU21623XXSP,2013-09-03 20:21:00,
2013-09-03 15:26:00,78.6,59.0,29.95,South,179,5.1,9.4,51,0.00,,,0.00,WUHU21623XXSP,2013-09-03 20:26:00,
2013-09-03 15:31:00,78.6,59.0,29.95,South,180,2.9,9.4,51,0.00,,,0.00,WUHU21623XXSP,2013-09-03 20:31:00,
2013-09-03 15:36:00,78.6,59.0,29.94,SSW,195,4.0,7.4,51,0.00,,,0.00,WUHU21623XXSP,2013-09-03 20:36:00,
2013-09-03 15:41:00,78.6,59.5,29.94,WSW,241,1.5,7.4,52,0.00,,,0.00,WUHU21623XXSP,2013-09-03 20:41:00,
2013-09-03 15:46:00,78.6,59.5,29.95,West,270,2.9,4.5,52,0.00,,,0.00,WUHU21623XXSP,2013-09-03 20:46:00,
2013-09-03 15:51:00,78.6,59.0,29.94,South,181,4.3,9.4,51,0.00,,,0.00,WUHU21623XXSP,2013-09-03 20:51:00,
2013-09-03 15:56:00,78.4,59.3,29.94,SSW,195,3.5,9.4,52,0.00,,,0.00,WUHU21623XXSP,2013-09-03 20:56:00,
2013-09-03 16:01:00,78.1,59.0,29.94,SSW,203,3.9,8.1,52,0.00,,,0.00,WUHU21623XXSP,2013-09-03 21:01:00,
2013-09-03 16:06:00,77.9,59.4,29.94,West,271,2.1,8.1,53,0.00,,,0.00,WUHU21623XXSP,2013-09-03 21:06:00,
2013-09-03 16:11:00,78.1,59.5,29.94,South,180,2.9,6.5,53,0.00,,,0.00,WUHU21623XXSP,2013-09-03 21:11:00,
2013-09-03 16:16:00,77.9,59.4,29.94,South,182,5.0,8.1,53,0.00,,,0.00,WUHU21623XXSP,2013-09-03 21:16:00,
2013-09-03 16:21:00,77.7,59.2,29.94,North,352,1.3,8.1,53,0.00,,,0.00,WUHU21623XXSP,2013-09-03 21:21:00,
2013-09-03 16:26:00,77.7,59.2,29.94,West,270,0.0,4.7,53,0.00,,,0.00,WUHU21623XXSP,2013-09-03 21:26:00,
2013-09-03 16:31:00,77.9,59.9,29.95,SSW,201,1.2,2.2,54,0.00,,,0.00,WUHU21623XXSP,2013-09-03 21:31:00,
2013-09-03 16:36:00,77.9,59.9,29.94,NW,315,1.3,4.7,54,0.00,,,0.00,WUHU21623XXSP,2013-09-03 21:36:00,
2013-09-03 16:41:00,77.7,59.7,29.95,South,178,2.6,4.7,54,0.00,,,0.00,WUHU21623XXSP,2013-09-03 21:41:00,
2013-09-03 16:46:00,77.7,59.7,29.95,SW,214,1.6,4.5,54,0.00,,,0.00,WUHU21623XXSP,2013-09-03 21:46:00,
2013-09-03 16:51:00,77.7,59.7,29.94,South,179,3.4,6.7,54,0.00,,,0.00,WUHU21623XXSP,2013-09-03 21:51:00,
2013-09-03 16:56:00,77.7,59.7,29.94,WSW,247,0.9,6.7,54,0.00,,,0.00,WUHU21623XXSP,2013-09-03 21:56:00,
2013-09-03 17:01:00,77.7,60.2,29.94,SSW,194,3.4,5.4,55,0.00,,,0.00,WUHU21623XXSP,2013-09-03 22:01:00,
2013-09-03 17:06:00,77.7,59.7,29.94,SSW,211,3.0,6.3,54,0.00,,,0.00,WUHU21623XXSP,2013-09-03 22:06:00,
2013-09-03 17:11:00,77.5,59.5,29.94,West,268,3.0,6.9,54,0.00,,,0.00,WUHU21623XXSP,2013-09-03 22:11:00,
2013-09-03 17:16:00,77.7,59.2,29.94,WSW,247,2.5,6.9,53,0.00,,,0.00,WUHU21623XXSP,2013-09-03 22:16:00,
2013-09-03 17:21:00,77.7,59.2,29.94,West,277,3.1,5.4,53,0.00,,,0.00,WUHU21623XXSP,2013-09-03 22:21:00,
2013-09-03 17:26:00,77.5,59.0,29.94,WNW,290,2.1,5.1,53,0.00,,,0.00,WUHU21623XXSP,2013-09-03 22:26:00,
2013-09-03 17:31:00,77.5,59.5,29.94,West,279,1.9,5.1,54,0.00,,,0.00,WUHU21623XXSP,2013-09-03 22:31:00,
2013-09-03 17:36:00,77.5,59.5,29.94,West,270,3.1,3.4,54,0.00,,,0.00,WUHU21623XXSP,2013-09-03 22:36:00,
2013-09-03 17:41:00,77.5,59.5,29.94,South,180,2.9,3.6,54,0.00,,,0.00,WUHU21623XXSP,2013-09-03 22:41:00,
2013-09-03 17:46:00,77.4,59.4,29.94,SW,216,2.3,5.4,54,0.00,,,0.00,WUHU21623XXSP,2013-09-03 22:46:00,
2013-09-03 17:51:00,77.2,59.2,29.94,SSW,202,2.5,5.1,54,0.00,,,0.00,WUHU21623XXSP,2013-09-03 22:51:00,
2013-09-03 17:57:00,77.0,59.5,29.94,South,188,3.0,5.8,55,0.00,,,0.00,WUHU21623XXSP,2013-09-03 22:57:00,
2013-09-03 18:02:00,76.8,59.4,29.95,South,173,3.1,5.8,55,0.00,,,0.00,WUHU21623XXSP,2013-09-03 23:02:00,
2013-09-03 18:07:00,76.8,59.9,29.95,SSW,202,3.8,6.3,56,0.00,,,0.00,WUHU21623XXSP,2013-09-03 23:07:00,
2013-09-03 18:12:00,76.8,59.9,29.94,SSE,157,3.8,6.3,56,0.00,,,0.00,WUHU21623XXSP,2013-09-03 23:12:00,
2013-09-03 18:17:00,76.6,59.7,29.94,South,173,3.3,4.7,56,0.00,,,0.00,WUHU21623XXSP,2013-09-03 23:17:00,
2013-09-03 18:22:00,76.5,59.6,29.93,South,183,3.0,5.4,56,0.00,,,0.00,WUHU21623XXSP,2013-09-03 23:22:00,
2013-09-03 18:27:00,76.3,59.9,29.93,South,177,4.5,7.2,57,0.00,,,0.00,WUHU21623XXSP,2013-09-03 23:27:00,
2013-09-03 18:32:00,76.1,59.7,29.93,SSW,202,4.5,7.2,57,0.00,,,0.00,WUHU21623XXSP,2013-09-03 23:32:00,
2013-09-03 18:37:00,75.9,60.1,29.93,South,180,2.0,6.3,58,0.00,,,0.00,WUHU21623XXSP,2013-09-03 23:37:00,
2013-09-03 18:42:00,75.9,59.6,29.93,South,180,4.0,5.6,57,0.00,,,0.00,WUHU21623XXSP,2013-09-03 23:42:00,
2013-09-03 18:47:00,75.7,59.9,29.93,South,171,1.0,4.5,58,0.00,,,0.00,WUHU21623XXSP,2013-09-03 23:47:00,
2013-09-03 18:52:00,75.6,59.8,29.93,South,184,1.8,4.0,58,0.00,,,0.00,WUHU21623XXSP,2013-09-03 23:52:00,
2013-09-03 18:57:00,75.4,60.1,29.93,South,175,1.8,4.5,59,0.00,,,0.00,WUHU21623XXSP,2013-09-03 23:57:00,
2013-09-03 19:02:00,75.2,59.9,29.93,South,181,2.3,4.5,59,0.00,,,0.00,WUHU21623XXSP,2013-09-04 00:02:00,
2013-09-03 19:07:00,75.0,59.8,29.93,South,180,1.2,2.7,59,0.00,,,0.00,WUHU21623XXSP,2013-09-04 00:07:00,
2013-09-03 19:12:00,74.8,59.6,29.93,South,176,1.3,2.7,59,0.00,,,0.00,WUHU21623XXSP,2013-09-04 00:12:00,
2013-09-03 19:17:00,74.7,59.9,29.93,SSE,157,1.3,2.7,60,0.00,,,0.00,WUHU21623XXSP,2013-09-04 00:17:00,
2013-09-03 19:22:00,74.5,59.7,29.93,South,180,2.0,2.7,60,0.00,,,0.00,WUHU21623XXSP,2013-09-04 00:22:00,
2013-09-03 19:27:00,74.1,59.8,29.93,South,180,2.0,2.2,61,0.00,,,0.00,WUHU21623XXSP,2013-09-04 00:27:00,
2013-09-03 19:32:00,73.9,59.6,29.93,SSE,157,1.6,2.5,61,0.00,,,0.00,WUHU21623XXSP,2013-09-04 00:32:00,
2013-09-03 19:37:00,73.6,59.3,29.92,South,178,1.9,2.9,61,0.00,,,0.00,WUHU21623XXSP,2013-09-04 00:37:00,
2013-09-03 19:42:00,73.2,59.4,29.92,South,180,2.0,2.9,62,0.00,,,0.00,WUHU21623XXSP,2013-09-04 00:42:00,
2013-09-03 19:47:00,73.0,59.2,29.93,South,180,1.6,2.0,62,0.00,,,0.00,WUHU21623XXSP,2013-09-04 00:47:00,
2013-09-03 19:52:00,72.7,59.3,29.93,South,180,2.7,2.7,63,0.00,,,0.00,WUHU21623XXSP,2013-09-04 00:52:00,
2013-09-03 19:57:00,72.3,59.0,29.93,South,172,2.9,3.4,63,0.00,,,0.00,WUHU21623XXSP,2013-09-04 00:57:00,
2013-09-03 20:02:00,72.0,58.6,29.93,South,181,2.5,4.0,63,0.00,,,0.00,WUHU21623XXSP,2013-09-04 01:02:00,
2013-09-03 20:07:00,71.8,58.9,29.93,South,176,2.2,4.0,65,0.00,,,0.00,WUHU21623XXSP,2013-09-04 01:07:00,
2013-09-03 20:12:00,71.4,59.0,29.93,South,180,2.0,3.1,65,0.00,,,0.00,WUHU21623XXSP,2013-09-04 01:12:00,
2013-09-03 20:17:00,71.2,59.3,29.93,South,180,2.0,2.9,66,0.00,,,0.00,WUHU21623XXSP,2013-09-04 01:17:00,
2013-09-03 20:22:00,71.2,59.3,29.93,South,180,1.8,2.0,66,0.00,,,0.00,WUHU21623XXSP,2013-09-04 01:22:00,
2013-09-03 20:27:00,70.9,58.9,29.93,South,180,2.0,2.5,66,0.00,,,0.00,WUHU21623XXSP,2013-09-04 01:27:00,
2013-09-03 20:33:00,70.5,59.0,29.93,South,187,1.8,2.9,67,0.00,,,0.00,WUHU21623XXSP,2013-09-04 01:33:00,
2013-09-03 20:38:00,70.3,58.8,29.93,South,180,1.6,2.9,67,0.00,,,0.00,WUHU21623XXSP,2013-09-04 01:38:00,
2013-09-03 20:43:00,70.2,58.6,29.94,South,177,1.1,2.5,67,0.00,,,0.00,WUHU21623XXSP,2013-09-04 01:43:00,
2013-09-03 20:48:00,70.0,58.9,29.94,South,172,0.9,2.5,68,0.00,,,0.00,WUHU21623XXSP,2013-09-04 01:48:00,
2013-09-03 20:53:00,69.8,58.7,29.94,South,180,2.0,2.0,68,0.00,,,0.00,WUHU21623XXSP,2013-09-04 01:53:00,
2013-09-03 20:58:00,69.6,58.5,29.94,South,185,1.3,2.0,68,0.00,,,0.00,WUHU21623XXSP,2013-09-04 01:58:00,
2013-09-03 21:03:00,69.4,58.8,29.94,South,180,2.2,2.5,69,0.00,,,0.00,WUHU21623XXSP,2013-09-04 02:03:00,
2013-09-03 21:08:00,69.1,58.5,29.94,South,180,1.6,3.4,69,0.00,,,0.00,WUHU21623XXSP,2013-09-04 02:08:00,
2013-09-03 21:13:00,69.1,58.9,29.94,South,174,1.6,3.4,70,0.00,,,0.00,WUHU21623XXSP,2013-09-04 02:13:00,
2013-09-03 21:18:00,68.9,58.7,29.93,South,180,1.8,2.9,70,0.00,,,0.00,WUHU21623XXSP,2013-09-04 02:18:00,
2013-09-03 21:23:00,68.7,58.6,29.94,South,180,1.3,2.9,70,0.00,,,0.00,WUHU21623XXSP,2013-09-04 02:23:00,
2013-09-03 21:28:00,68.7,58.6,29.94,South,180,1.6,2.2,70,0.00,,,0.00,WUHU21623XXSP,2013-09-04 02:28:00,
2013-09-03 21:33:00,68.5,58.8,29.95,SSE,168,2.0,2.2,71,0.00,,,0.00,WUHU21623XXSP,2013-09-04 02:33:00,
2013-09-03 21:38:00,68.4,58.6,29.94,South,180,2.0,2.2,71,0.00,,,0.00,WUHU21623XXSP,2013-09-04 02:38:00,
2013-09-03 21:43:00,68.2,58.5,29.94,SSE,157,2.2,2.7,71,0.00,,,0.00,WUHU21623XXSP,2013-09-04 02:43:00,
2013-09-03 21:48:00,68.2,58.8,29.94,SSE,157,2.0,3.4,72,0.00,,,0.00,WUHU21623XXSP,2013-09-04 02:48:00,
2013-09-03 21:53:00,67.8,58.5,29.93,SSE,168,2.2,3.4,72,0.00,,,0.00,WUHU21623XXSP,2013-09-04 02:53:00,
2013-09-03 21:58:00,67.8,58.5,29.94,South,176,2.2,2.9,72,0.00,,,0.00,WUHU21623XXSP,2013-09-04 02:58:00,
2013-09-03 22:03:00,67.6,58.7,29.94,South,169,1.7,2.9,73,0.00,,,0.00,WUHU21623XXSP,2013-09-04 03:03:00,
2013-09-03 22:08:00,67.6,58.7,29.94,SSE,157,0.0,2.5,73,0.00,,,0.00,WUHU21623XXSP,2013-09-04 03:08:00,
2013-09-03 22:13:00,67.3,58.0,29.94,SSE,157,0.0,0.9,72,0.00,,,0.00,WUHU21623XXSP,2013-09-04 03:13:00,
2013-09-03 22:18:00,67.1,57.8,29.94,SSE,151,0.9,1.1,72,0.00,,,0.00,WUHU21623XXSP,2013-09-04 03:18:00,
2013-09-03 22:23:00,66.7,57.4,29.94,SSE,157,1.3,1.6,72,0.00,,,0.00,WUHU21623XXSP,2013-09-04 03:23:00,
2013-09-03 22:28:00,66.0,57.1,29.94,SSE,157,2.0,2.2,73,0.00,,,0.00,WUHU21623XXSP,2013-09-04 03:28:00,
2013-09-03 22:33:00,66.0,57.1,29.94,SSE,161,2.3,2.7,73,0.00,,,0.00,WUHU21623XXSP,2013-09-04 03:33:00,
2013-09-03 22:38:00,66.0,57.5,29.94,SSE,161,1.4,2.9,74,0.00,,,0.00,WUHU21623XXSP,2013-09-04 03:38:00,
2013-09-03 22:43:00,66.0,57.5,29.94,South,180,2.0,2.9,74,0.00,,,0.00,WUHU21623XXSP,2013-09-04 03:43:00,
2013-09-03 22:48:00,65.8,57.3,29.94,SSE,157,2.2,2.5,74,0.00,,,0.00,WUHU21623XXSP,2013-09-04 03:48:00,
2013-09-03 22:53:00,65.8,57.3,29.94,SSE,157,0.0,2.5,74,0.00,,,0.00,WUHU21623XXSP,2013-09-04 03:53:00,
2013-09-03 22:58:00,65.8,57.3,29.94,SSE,157,0.7,2.0,74,0.00,,,0.00,WUHU21623XXSP,2013-09-04 03:58:00,
2013-09-03 23:01:00,65.8,57.3,29.94,South,173,0.9,1.3,74,0.00,,,0.00,WUHU21623XXSP,2013-09-04 04:01:00,
2013-09-03 23:03:00,65.7,57.5,29.94,SE,135,0.0,1.3,75,0.00,,,0.00,WUHU21623XXSP,2013-09-04 04:03:00,
2013-09-03 23:08:00,65.7,57.5,29.94,ENE,67,0.0,1.3,75,0.00,,,0.00,WUHU21623XXSP,2013-09-04 04:08:00,
2013-09-03 23:13:00,65.5,56.9,29.94,NE,45,0.0,0.0,74,0.00,,,0.00,WUHU21623XXSP,2013-09-04 04:13:00,
2013-09-03 23:18:00,65.3,56.8,29.95,NE,45,0.0,0.0,74,0.00,,,0.00,WUHU21623XXSP,2013-09-04 04:18:00,
2013-09-03 23:23:00,65.1,56.6,29.95,NE,45,0.0,0.0,74,0.00,,,0.00,WUHU21623XXSP,2013-09-04 04:23:00,
2013-09-03 23:28:00,64.9,56.4,29.95,South,180,1.0,1.3,74,0.00,,,0.00,WUHU21623XXSP,2013-09-04 04:28:00,
2013-09-03 23:33:00,64.2,55.8,29.94,South,180,1.1,2.0,74,0.00,,,0.00,WUHU21623XXSP,2013-09-04 04:33:00,
2013-09-03 23:38:00,63.9,55.8,29.94,South,180,0.0,2.5,75,0.00,,,0.00,WUHU21623XXSP,2013-09-04 04:38:00,
2013-09-03 23:43:00,63.5,55.4,29.94,South,180,0.0,2.5,75,0.00,,,0.00,WUHU21623XXSP,2013-09-04 04:43:00,
2013-09-03 23:48:00,63.3,55.2,29.94,South,180,0.0,0.0,75,0.00,,,0.00,WUHU21623XXSP,2013-09-04 04:48:00,
2013-09-03 23:53:00,63.1,55.0,29.94,South,180,0.0,0.0,75,0.00,,,0.00,WUHU21623XXSP,2013-09-04 04:53:00,
2013-09-03 23:58:00,63.0,54.9,29.95,SSW,202,0.0,0.0,75,0.00,,,0.00,WUHU21623XXSP,2013-09-04 04:58:00,